• In Belarus
  • List of Countries
  • For 7 days
  • Water Temperature
  • Satellite Maps
  • Weather Map
  • Weather Widgets
  • user-avatar
    Login

    Hourly Weather Newcastle

    Today, 20 November, Monday

    Time Temperature Precipitation Wind Pressure Humidity
    00:00 +16°C° 0 mm 2 mps 766 mmHg 92%
    01:00 +15°C° 0 mm 2 mps 766 mmHg 91%
    02:00 +15°C° 0 mm 2 mps 766 mmHg 92%
    03:00 +15°C° 0 mm 2 mps 766 mmHg 92%
    04:00 +15°C° 0 mm 2 mps 766 mmHg 93%
    05:00 +16°C° 0.1 mm 2 mps 766 mmHg 89%
    06:00 +18°C° 0.1 mm 2 mps 767 mmHg 86%
    07:00 +19°C° 0.1 mm 2 mps 767 mmHg 82%
    08:00 +21°C° 0.1 mm 3 mps 767 mmHg 74%
    09:00 +22°C° 0.1 mm 3 mps 767 mmHg 65%
    10:00 +23°C° 0 mm 4 mps 767 mmHg 57%
    11:00 +23°C° 0 mm 4 mps 767 mmHg 56%
    12:00 +25°C° 0 mm 4 mps 767 mmHg 55%
    13:00 +25°C° 0 mm 4 mps 767 mmHg 54%
    14:00 +25°C° 0 mm 4 mps 766 mmHg 56%
    15:00 +25°C° 0 mm 4 mps 766 mmHg 58%
    16:00 +23°C° 0 mm 4 mps 766 mmHg 63%
    17:00 +21°C° 0.1 mm 4 mps 766 mmHg 72%
    18:00 +20°C° 0.1 mm 4 mps 766 mmHg 81%
    19:00 +18°C° 0.1 mm 3 mps 767 mmHg 90%
    20:00 +18°C° 0.1 mm 3 mps 767 mmHg 92%
    21:00 +17°C° 0.1 mm 3 mps 767 mmHg 94%
    22:00 +16°C° 0 mm 3 mps 767 mmHg 96%
    23:00 +16°C° 0.1 mm 3 mps 767 mmHg 96%

    Tomorrow, 21 November, Tuesday

    Time Temperature Precipitation Wind Pressure Humidity
    00:00 +16°C° 0.1 mm 2 mps 766 mmHg 95%
    01:00 +16°C° 0.1 mm 2 mps 766 mmHg 95%
    02:00 +16°C° 0 mm 2 mps 766 mmHg 95%
    03:00 +16°C° 0 mm 2 mps 766 mmHg 94%
    04:00 +15°C° 0 mm 2 mps 766 mmHg 93%
    05:00 +17°C° 0 mm 2 mps 766 mmHg 88%
    06:00 +18°C° 0 mm 2 mps 766 mmHg 83%
    07:00 +19°C° 0 mm 2 mps 766 mmHg 78%
    08:00 +20°C° 0 mm 2 mps 766 mmHg 71%
    09:00 +21°C° 0 mm 2 mps 766 mmHg 63%
    10:00 +22°C° 0 mm 3 mps 766 mmHg 56%
    11:00 +24°C° 0 mm 3 mps 766 mmHg 53%
    12:00 +25°C° 0 mm 3 mps 766 mmHg 50%
    13:00 +26°C° 0 mm 3 mps 765 mmHg 47%
    14:00 +26°C° 0 mm 4 mps 765 mmHg 49%
    15:00 +25°C° 0 mm 4 mps 765 mmHg 51%
    16:00 +25°C° 0 mm 4 mps 764 mmHg 53%
    17:00 +22°C° 0 mm 4 mps 764 mmHg 63%
    18:00 +20°C° 0 mm 4 mps 765 mmHg 73%
    19:00 +18°C° 0 mm 3 mps 765 mmHg 83%
    20:00 +18°C° 0.1 mm 3 mps 765 mmHg 87%
    21:00 +17°C° 0.1 mm 3 mps 765 mmHg 92%
    22:00 +16°C° 0.1 mm 3 mps 765 mmHg 96%
    23:00 +16°C° 0.2 mm 3 mps 765 mmHg 96%

    Day after tomorrow, 22 November, Wednesday

    Time Temperature Precipitation Wind Pressure Humidity
    00:00 +16°C° 0.2 mm 2 mps 764 mmHg 97%
    01:00 +16°C° 0.2 mm 2 mps 764 mmHg 97%
    02:00 +16°C° 0.2 mm 2 mps 764 mmHg 97%
    03:00 +16°C° 0.2 mm 1 mps 764 mmHg 97%
    04:00 +16°C° 0.2 mm 1 mps 763 mmHg 97%
    05:00 +18°C° 0.2 mm 1 mps 764 mmHg 92%
    06:00 +20°C° 0.2 mm 1 mps 764 mmHg 88%
    07:00 +20°C° 0.2 mm 2 mps 764 mmHg 84%
    08:00 +21°C° 0.5 mm 2 mps 764 mmHg 80%
    09:00 +22°C° 0.5 mm 3 mps 764 mmHg 77%
    10:00 +24°C° 0.5 mm 3 mps 763 mmHg 74%
    11:00 +24°C° 0.7 mm 3 mps 763 mmHg 72%
    12:00 +25°C° 0.7 mm 4 mps 762 mmHg 70%
    13:00 +25°C° 0.7 mm 4 mps 762 mmHg 67%
    14:00 +25°C° 0.3 mm 4 mps 762 mmHg 65%
    15:00 +25°C° 0.3 mm 4 mps 761 mmHg 62%
    16:00 +25°C° 0.3 mm 4 mps 761 mmHg 60%
    17:00 +22°C° 0.1 mm 3 mps 761 mmHg 69%
    18:00 +20°C° 0.1 mm 3 mps 762 mmHg 78%
    19:00 +19°C° 0.1 mm 2 mps 762 mmHg 88%
    20:00 +18°C° 0.3 mm 2 mps 762 mmHg 90%
    21:00 +18°C° 0.3 mm 2 mps 762 mmHg 93%
    22:00 +17°C° 0.3 mm 3 mps 763 mmHg 96%
    23:00 +17°C° 0.2 mm 3 mps 762 mmHg 96%

    23 November, Thursday

    Time Temperature Precipitation Wind Pressure Humidity
    00:00 +16°C° 0.2 mm 2 mps 762 mmHg 96%
    01:00 +16°C° 0.2 mm 2 mps 761 mmHg 97%
    02:00 +16°C° 0 mm 2 mps 761 mmHg 97%
    03:00 +15°C° 0 mm 2 mps 761 mmHg 97%
    04:00 +15°C° 0 mm 1 mps 761 mmHg 97%
    05:00 +18°C° 0 mm 1 mps 761 mmHg 90%
    06:00 +20°C° 0 mm 1 mps 762 mmHg 82%
    07:00 +22°C° 0 mm 1 mps 762 mmHg 74%
    08:00 +24°C° 0 mm 1 mps 762 mmHg 64%
    09:00 +26°C° 0 mm 2 mps 762 mmHg 55%
    10:00 +28°C° 0 mm 2 mps 762 mmHg 45%
    11:00 +28°C° 0 mm 3 mps 761 mmHg 43%
    12:00 +29°C° 0 mm 3 mps 761 mmHg 41%
    13:00 +30°C° 0 mm 4 mps 760 mmHg 40%
    14:00 +29°C° 0 mm 4 mps 760 mmHg 42%
    15:00 +29°C° 0 mm 5 mps 760 mmHg 45%
    16:00 +28°C° 0 mm 5 mps 759 mmHg 48%
    17:00 +26°C° 0.2 mm 5 mps 760 mmHg 59%
    18:00 +22°C° 0.2 mm 5 mps 760 mmHg 71%
    19:00 +20°C° 0.2 mm 5 mps 760 mmHg 82%
    20:00 +19°C° 0.1 mm 5 mps 761 mmHg 85%
    21:00 +18°C° 0.1 mm 4 mps 761 mmHg 88%
    22:00 +18°C° 0.1 mm 4 mps 761 mmHg 91%
    23:00 +17°C° 0 mm 4 mps 761 mmHg 92%

    24 November, Friday

    Time Temperature Precipitation Wind Pressure Humidity
    00:00 +17°C° 0 mm 4 mps 761 mmHg 92%
    01:00 +16°C° 0 mm 3 mps 760 mmHg 93%
    02:00 +16°C° 0 mm 3 mps 760 mmHg 94%
    03:00 +16°C° 0 mm 3 mps 760 mmHg 95%
    04:00 +15°C° 0 mm 2 mps 760 mmHg 95%
    05:00 +17°C° 0 mm 2 mps 760 mmHg 88%
    06:00 +19°C° 0 mm 2 mps 761 mmHg 80%
    07:00 +21°C° 0 mm 2 mps 761 mmHg 72%
    08:00 +26°C° 0 mm 2 mps 761 mmHg 61%
    09:00 +29°C° 0 mm 2 mps 761 mmHg 49%
    10:00 +32°C° 0 mm 1 mps 761 mmHg 37%
    11:00 +34°C° 0 mm 2 mps 760 mmHg 36%
    12:00 +34°C° 0 mm 3 mps 760 mmHg 34%
    13:00 +34°C° 0 mm 4 mps 759 mmHg 33%
    14:00 +33°C° 0 mm 4 mps 759 mmHg 39%
    15:00 +30°C° 0 mm 4 mps 759 mmHg 45%
    16:00 +29°C° 0 mm 5 mps 759 mmHg 50%
    17:00 +27°C° 0 mm 4 mps 760 mmHg 58%
    18:00 +25°C° 0 mm 4 mps 760 mmHg 66%
    19:00 +22°C° 0 mm 4 mps 761 mmHg 74%
    20:00 +21°C° 0 mm 3 mps 761 mmHg 78%
    21:00 +20°C° 0 mm 3 mps 761 mmHg 82%
    22:00 +19°C° 0 mm 2 mps 762 mmHg 86%
    23:00 +19°C° 0 mm 2 mps 761 mmHg 88%

    25 November, Saturday

    Time Temperature Precipitation Wind Pressure Humidity
    00:00 +18°C° 0 mm 2 mps 761 mmHg 89%
    01:00 +18°C° 0 mm 2 mps 761 mmHg 91%
    02:00 +18°C° 0 mm 2 mps 761 mmHg 92%
    03:00 +18°C° 0 mm 2 mps 761 mmHg 93%
    04:00 +18°C° 0 mm 1 mps 761 mmHg 94%
    05:00 +20°C° 0 mm 1 mps 761 mmHg 85%
    06:00 +23°C° 0 mm 1 mps 762 mmHg 76%
    07:00 +25°C° 0 mm 1 mps 762 mmHg 67%
    08:00 +27°C° 0 mm 2 mps 762 mmHg 58%
    09:00 +30°C° 0 mm 2 mps 762 mmHg 49%
    10:00 +32°C° 0 mm 2 mps 762 mmHg 40%
    11:00 +34°C° 0 mm 3 mps 761 mmHg 38%
    12:00 +34°C° 0 mm 4 mps 761 mmHg 36%
    13:00 +34°C° 0 mm 4 mps 760 mmHg 34%
    14:00 +33°C° 0 mm 5 mps 760 mmHg 36%
    15:00 +32°C° 0 mm 5 mps 760 mmHg 39%
    16:00 +30°C° 0 mm 5 mps 760 mmHg 41%
    17:00 +28°C° 0 mm 5 mps 761 mmHg 50%
    18:00 +25°C° 0 mm 4 mps 761 mmHg 59%
    19:00 +22°C° 0 mm 4 mps 762 mmHg 68%
    20:00 +21°C° 0 mm 3 mps 762 mmHg 73%
    21:00 +20°C° 0 mm 3 mps 762 mmHg 78%
    22:00 +19°C° 0 mm 2 mps 763 mmHg 83%
    23:00 +18°C° 0 mm 3 mps 762 mmHg 86%
    Show more